Regional Weather Roundup
Issued by NWS

Current Version | Previous Version | Text Only | Print | Product List | Glossary On
Versions: 1 2 3 4 5 6 7 8 9 10 11 12 13 14 15 16 17 18 19 20 21 22 23 24 25 26 27 28 29 30 31 32 33 34 35 36 37 38 39 40 41 42 43 44 45 46 47 48 49 50
000
ASUS44 KMEG 251210
RWRTN
TENNESSEE HOURLY STATE WEATHER ROUNDUP
NATIONAL WEATHER SERVICE MEMPHIS TN
700 AM CDT SUN JUN 25 2017

TNZ002-004-019-021-049-052-054-088>092-251300-
WEST TENNESSEE

CITY           SKY/WX    TMP DP  RH WIND       PRES   REMARKS
MEMPHIS INTL   CLOUDY    70  58  65 CALM      30.21R
NWS MEMPHIS      N/A     66 N/A N/A MISG        N/A
JACKSON        SUNNY     64  60  87 CALM      30.22R
SOMERVILLE     SUNNY     64  61  88 CALM      30.20S
COVINGTON      SUNNY     66  63  88 CALM      30.22R
UNION CITY     SUNNY     63  61  94 CALM      30.21R FOG
BOLIVAR        SUNNY     64  59  82 CALM      30.21R
PARIS          SUNNY     63  59  88 CALM      30.21R
HUNTINGDON     SUNNY     63  59  88 CALM      30.21R
LEXINGTON      SUNNY     63  61  94 CALM      30.21R
SELMER         SUNNY     64  59  82 CALM      30.21R
SAVANNAH       SUNNY     64  63  94 CALM      30.20S
$$

TNZ008-025-027-028-033-062-065-066-251300-
NORTH MIDDLE TENNESSEE

CITY           SKY/WX    TMP DP  RH WIND       PRES   REMARKS
NASHVILLE      CLOUDY    66  57  72 VRB3      30.22R
PORTLAND       SUNNY     63  57  82 CALM      30.21S
CLARKSVILLE    SUNNY     60  55  83 CALM      30.21R
SMYRNA         MOSUNNY   64  58  80 CALM      30.22R
COOKEVILLE     SUNNY     61  59  94 CALM      30.21S
GALLATIN       SUNNY     64  57  77 CALM      30.24R
CROSSVILLE     CLOUDY    60  54  80 N3        30.24R
$$

TNZ061-075-076-078-094-096-097-251300-
SOUTH MIDDLE TENNESSEE

CITY           SKY/WX    TMP DP  RH WIND       PRES   REMARKS
FAYETTEVILLE   MOSUNNY   64  59  82 N5        30.20R
TULLAHOMA      SUNNY     61  57  88 N5        30.22S
WINCHESTER     SUNNY     61  61 100 CALM        N/A
MCMINNVILLE    SUNNY     63  63 100 CALM      30.22S
COLUMBIA       SUNNY     63  63 100 CALM      30.19S
SHELBYVILLE    SUNNY     63  59  88 N5        30.21S
$$

TNZ017-018-042-046-047-251300-
NORTHEAST TENNESSEE

CITY           SKY/WX    TMP DP  RH WIND       PRES   REMARKS
TRI CITIES     CLOUDY    66  62  87 CALM      30.18R
ELIZABETHTON   CLOUDY    64  63  94 CALM      30.18R
$$

TNZ012-013-036-069-073-074-251300-
CENTRAL EAST TENNESSEE

CITY           SKY/WX    TMP DP  RH WIND       PRES   REMARKS
KNOXVILLE      CLOUDY    66  57  72 NW6       30.18R
OAK RIDGE      CLOUDY    65  60  84 CALM      30.20R
DOWNTOWN KNOXV SUNNY     66  64  94 CALM      30.18R
GATLINBURG     SUNNY     66  61  82 CALM      30.17R
MORRISTOWN     PTSUNNY   66  61  82 CALM      30.17R
JACKSBORO      SUNNY     64  55  72 SW5       30.23R
$$

TNZ083-085-099-251300-
SOUTHEAST TENNESSEE

CITY           SKY/WX    TMP DP  RH WIND       PRES   REMARKS
CHATTANOOGA    CLOUDY    67  58  72 NW5       30.19R
$$

SKY/WX REPORTED AS FAIR MEANS FEW OR NO CLOUDS BELOW
12 THOUSAND FEET.





USA.gov is the U.S. government's official web portal to all federal, state and local government web resources and services.